CST,Max TemperatureF,Mean TemperatureF,Min TemperatureF,Max Dew PointF,MeanDew PointF,Min DewpointF,Max Humidity, Mean Humidity, Min Humidity, Max Sea Level PressureIn, Mean Sea Level PressureIn, Min Sea Level PressureIn, Max VisibilityMiles, Mean VisibilityMiles, Min VisibilityMiles, Max Wind SpeedMPH, Mean Wind SpeedMPH, Max Gust SpeedMPH,PrecipitationIn, CloudCover, Events, WindDirDegrees
2014-2-1,25,21,16,20,16,11,92,85,77,30.21,29.97,29.85,10,4,0,18,11,24,0.39,7,Fog-Snow,6
2014-2-2,17,4,-10,9,-2,-12,79,71,63,30.40,30.35,30.22,10,10,10,18,8,24,0.00,0,,326
2014-2-3,17,2,-13,2,-5,-14,95,72,49,30.45,30.39,30.36,10,8,2,8,3,10,0.00,1,,213
2014-2-4,20,15,10,14,11,3,84,68,51,30.41,30.25,30.11,10,4,0,21,10,26,T,8,Fog-Snow,47
2014-2-5,18,9,-1,14,6,-7,88,77,66,30.60,30.35,30.09,10,5,1,21,13,30,0.00,7,Snow,329
2014-2-6,7,-1,-9,-6,-9,-14,83,69,55,30.63,30.55,30.49,10,8,1,14,6,18,0.00,0,,284
2014-2-7,12,1,-11,2,-5,-12,83,71,58,30.50,30.43,30.34,10,10,9,15,7,17,0.00,3,,211
2014-2-8,20,16,11,17,11,3,91,76,61,30.32,30.19,30.10,10,5,1,10,5,13,0.02,8,Snow,181
2014-2-9,20,9,-2,18,7,-9,92,77,61,30.45,30.27,30.12,10,6,1,15,8,21,0.03,2,Snow,317
2014-2-10,6,-2,-10,-6,-10,-14,83,69,55,30.56,30.52,30.45,10,10,10,12,7,15,0.00,0,,322
2014-2-11,11,0,-12,-3,-9,-15,92,74,55,30.58,30.50,30.36,10,9,2,12,4,14,0.00,0,,185
2014-2-12,25,14,2,11,5,-5,80,65,50,30.32,30.16,30.01,10,10,9,14,6,17,0.00,5,,176
2014-2-13,40,26,12,28,17,6,75,67,59,29.99,29.79,29.63,10,9,7,22,12,29,0.00,1,,233
2014-2-14,21,14,6,12,9,1,88,78,67,30.12,29.84,29.71,10,5,0,20,10,26,0.17,4,Fog-Snow,344
2014-2-15,22,8,-7,16,8,-9,100,85,70,30.14,30.02,29.91,10,6,0,14,6,16,0.08,5,Fog-Snow,177
2014-2-16,28,24,19,18,16,14,84,73,62,30.25,30.15,29.95,10,8,6,23,10,27,0.00,5,,21
2014-2-17,40,31,21,33,26,15,100,80,59,30.17,29.87,29.76,10,4,0,23,13,31,0.42,6,Fog-Rain-Snow,187
2014-2-18,50,37,24,31,27,21,92,67,42,29.96,29.79,29.66,10,10,10,29,12,37,0.00,0,,219
2014-2-19,42,35,28,34,30,28,92,76,60,29.99,29.91,29.78,10,10,5,15,8,18,0.06,1,Rain,221
2014-2-20,47,41,35,46,36,27,100,88,75,29.76,29.46,29.12,10,5,0,36,16,47,1.78,8,Fog-Rain-Thunderstorm,115
2014-2-21,42,34,26,26,21,14,85,65,44,29.91,29.75,29.53,10,10,2,29,13,38,T,4,Snow,267
2014-2-22,34,28,21,25,19,13,88,69,49,30.16,30.04,29.92,10,10,10,16,7,20,0.00,4,,6
2014-2-23,27,23,19,13,11,9,68,59,50,30.37,30.30,30.18,10,10,10,17,9,22,0.00,2,,332
2014-2-24,26,22,17,15,11,8,84,67,50,30.42,30.34,30.27,10,8,1,13,7,15,0.01,6,Snow,334
2014-2-25,18,13,8,14,4,-3,88,71,53,30.39,30.35,30.29,10,9,2,21,11,30,T,2,Snow,322
2014-2-26,24,11,-2,11,-2,-11,69,55,41,30.43,30.19,29.86,10,10,8,22,13,30,0.00,1,,278
2014-2-27,23,13,3,9,-6,-10,59,51,42,30.24,30.14,29.90,10,10,10,25,10,35,0.00,1,,353
2014-2-28,41,24,7,22,11,-4,73,57,40,30.15,30.02,29.91,10,10,10,21,11,26,0.00,2,,153